Location: Contre
(49.7477°N, 2.0963°E)
Time: 22:05:51
(UTC+00:00)

Cosmos 2360 Rocket - Visible Passes

Search period start: 13 September 2024 00:00
Search period end: 23 September 2024 00:00
Orbit: 834 x 843 km, 71.0° (Epoch: 12 September)

Date Brightness Start Highest point End Pass type
(mag) Time Alt. Az. Time Alt. Az. Time Alt. Az.
13 Sep 4.6 00:54:09 10° N 00:58:11 20° NE 01:02:12 10° E visible
13 Sep 2.3 02:37:30 10° NNW 02:43:10 75° ENE 02:48:46 10° SE visible
13 Sep 3.3 04:22:32 10° NW 04:26:32 20° W 04:30:31 10° SW visible
13 Sep 4.3 19:17:39 10° WSW 19:22:29 28° NW 19:27:20 10° NNE visible
13 Sep 5.3 21:07:48 10° NNW 21:08:32 10° NNW 21:09:17 10° NNW visible
14 Sep 4.6 00:38:14 10° N 00:42:09 19° NE 00:46:04 10° E visible
14 Sep 2.3 02:21:33 10° NNW 02:27:11 71° ENE 02:32:48 10° SE visible
14 Sep 3.3 04:06:27 10° NW 04:10:37 22° W 04:14:45 10° SSW visible
14 Sep 4.2 19:01:34 10° WSW 19:06:28 30° NW 19:11:24 10° NNE visible
14 Sep 5.2 20:51:21 10° NNW 20:52:29 11° NNW 20:53:36 10° N visible
15 Sep 4.6 00:22:19 10° N 00:26:07 18° NE 00:29:54 10° ENE visible
15 Sep 2.4 02:05:35 10° NNW 02:11:13 67° ENE 02:13:14 40° SE visible
15 Sep 3.2 03:50:23 10° NW 03:54:41 23° WSW 03:54:43 23° WSW visible
15 Sep 4.2 18:45:29 10° WSW 18:50:27 31° NW 18:55:27 10° NNE visible
15 Sep 5.2 20:35:01 10° NW 20:36:25 11° NNW 20:37:49 10° N visible
16 Sep 4.6 00:06:24 10° N 00:10:05 17° NE 00:13:30 11° ENE visible
16 Sep 2.5 01:49:38 10° NNW 01:55:06 63° NE 01:55:06 63° NE visible
16 Sep 3.6 03:34:20 10° NW 03:36:43 20° WNW 03:36:43 20° WNW visible
16 Sep 4.1 18:29:24 10° WSW 18:34:27 33° NW 18:39:31 10° NNE visible
16 Sep 5.1 20:18:42 10° NW 20:20:21 11° NNW 20:22:00 10° N visible
16 Sep 4.6 23:50:29 10° N 23:54:02 17° NNE 23:56:19 14° ENE visible
17 Sep 3.0 01:33:40 10° NNW 01:37:59 48° N 01:37:59 48° N visible
17 Sep 4.0 03:18:16 10° NW 03:19:38 16° WNW 03:19:38 16° WNW visible
17 Sep 5.0 20:02:25 10° NW 20:04:17 12° NNW 20:06:10 10° N visible
17 Sep 4.6 23:34:33 10° N 23:38:00 16° NNE 23:39:36 15° NE visible
18 Sep 3.4 01:17:43 10° NNW 01:21:16 37° N 01:21:16 37° N visible
18 Sep 4.2 03:02:14 10° NW 03:02:56 13° NW 03:02:56 13° NW visible
18 Sep 5.0 19:46:10 10° NW 19:48:14 12° NNW 19:50:18 10° N visible
18 Sep 4.6 23:18:39 10° N 23:21:57 16° NNE 23:23:06 15° NE visible
19 Sep 3.7 01:01:45 10° NNW 01:04:48 31° N 01:04:48 31° N visible
19 Sep 4.4 02:46:12 10° NW 02:46:29 11° NW 02:46:29 11° NW visible
19 Sep 4.9 19:29:55 10° NW 19:32:10 12° NNW 19:34:26 10° N visible
19 Sep 4.6 23:02:44 10° N 23:05:55 15° NNE 23:06:46 15° NE visible
20 Sep 3.9 00:45:48 10° NNW 00:48:28 27° N 00:48:28 27° N visible
20 Sep 4.9 19:13:41 10° NW 19:16:07 13° NNW 19:18:33 10° N visible
20 Sep 4.6 22:46:50 10° N 22:49:52 14° NNE 22:50:34 14° NE visible
21 Sep 4.1 00:29:51 10° NNW 00:32:15 25° N 00:32:15 25° N visible
21 Sep 4.8 18:57:28 10° NW 19:00:03 13° NNW 19:02:39 10° N visible
21 Sep 4.6 22:30:55 10° N 22:33:48 14° NNE 22:34:25 14° NE visible
22 Sep 4.2 00:13:54 10° NNW 00:16:08 23° N 00:16:08 23° N visible
22 Sep 4.8 18:41:15 10° WNW 18:44:00 14° NNW 18:46:45 10° N visible
22 Sep 4.6 22:15:01 10° N 22:17:45 14° NNE 22:18:20 13° NE visible
